Voltar ao catálogo

FREGAT DEB

LostUNKNOWN
NORAD 45911·DEBRIS·🇷🇺 Russia

Lançado Jul 18, 2011 de Baikonur Cosmodrome

Loading…

Próximas Passagens (próximas 24 horas)

TLE

ObsoletoSource: Space-Track

Época: Mar 8, 2022, 00:29 UTC

1 45911U 11037EG  22067.02043742  .00057297  00000-0  27315+0 0  9998
2 45911  52.7521 298.3783 2047424 263.6866  72.8397  9.96649852 58708

Acompanhe FREGAT DEB em tempo real com AllMySat

Download on the App Store